Showing default

HULIANWANG DIGUI-142, 67440

Orbit data source: Space-Track

HULIANWANG DIGUI-142, 67440 is a payload satellite owned by Zhongguo Xingwang (CN) in LEO that was launched on Tue, 13 Jan 2026 UTC via a CHANG ZHENG 8A launch vehicle from the Wenchang Satellite Launch Center (WSC). Payload-class satellites include a variety of spacecraft equipped with specific instruments for various scientific and technological missions. These include communications satellites like Starlink; space stations such as the ISS; scientific satellites like the Hubble; Earth observation satellites from companies like Planet Labs, Umbra, and HawkEye 360; GPS; miniature CubeSats for education and research; and military/defense satellites.

Loading next visibility...
Identifier
67440, 2026-007F
Orbit
LEO
Country
Flag of CNCN / PRC
Related business
Manufacturer
CAST
Mission
Operational spacecraft
Bus & Motor
XINGWANG C, Unknown motor
Mass
~700 kg wet, ~700 kg dry
Launch date (UTC)
2026-01-13 (1 month ago)
Launch vehicle
CHANG ZHENG 8A
Launch site
Wenchang Satellite Launch Center (WSC)
Object type
Payload
Rocket body
Debris
Shape & HBR
Unknown shape, 14.5 m
Radar Cross Section
RCS unknown

Expand to show TLE details & history
Last TLE update: 2 days ago

TLE from 2 days ago
0 HULIANWANG DIGUI-142
1 67440U 26007F   26047.59529965 -.00000149  00000-0 -16737-4 0  9999
2 67440  50.0164 161.1607 0001717   6.7787 353.3123 13.63470917  4704
Epoch: 2026-02-16T14:17Z
TLE epoch observation values (Epoch: 2026-02-16T14:17:13.889Z)
Latitude
-0.00004°
Longitude
160.2654°
Altitude
1,022.359 km
Speed
7.342 km/s
True Right ascension
10h 44m 38s
True Declination
0° 00' 00"
Sunlit
Object was in full shadow at epoch
Visualization orbit readout
Latitude
Unknown
Longitude
Unknown
Altitude
Unknown
Speed
Unknown
Apparent Right ascension
Unknown
Apparent Declination
Unknown
Sunlit
N/A
Visualization observer readout
Local Sidereal Time
06:18:49
Azimuth
Unknown
Elevation
Unknown
Doppler factor
Unknown
Orbital elements
Apogee altitude
1,025.09 km
Perigee altitude
1,022.549 km
Semi-major axis
7,401.956 km
Eccentricity
0.00017
Inclination
50.0164°
RAAN
161.1607°
Arg. of periapsis
6.7787°
True anomaly
353.31001°
Mean anomaly
353.3123°
Eccentric anomaly
353.31115°
Mean motion
3.40819 °/min
Orbital period
105.63 mins
BSTAR
-0.000016737
Loading maneuver chart data...
Computing Atmospheric mass density...
Loading historical data...
Loading historical data...
Loading historical data...
Loading historical data...
Loading historical data...
Loading historical data...
Loading historical data...

Documentation

Showing up to 5 results
|